Location: Bouillancy
(49.1149°N, 2.9308°E)
Time: 08:32:50
(UTC+00:00)

MOS 1 Rocket - Pass Details

Date: 30 September 2020
Orbit: 614 x 831 km, 97.4° (Epoch: 29 October)

Event Time Altitude Azimuth Distance (km) Brightness Sun altitude
Rises 18:55:16 0° 14° (NNE) 2,923 6.5 -15.0°
Reaches altitude 10° 18:57:29 10° 16° (NNE) 1,998 5.6 -15.3°
Maximum altitude 19:01:48 77° 102° (ESE) 637 2.9 -16.0°
Drops below altitude 10° 19:06:04 10° 189° (S) 1,976 5.6 -16.7°
Sets 19:08:15 0° 191° (S) 2,888 6.5 -17.0°
